Espace membre
Imprimable
Challenges > Delhalle - Bousval, 06/03/2016, BEL - Le Cross de Bousval
Liste des rapports > Delhalle - 15km - Classement
Recherche: Page: [1]
113 Entrées
 
Les réclamations ne sont plus acceptées, les résultats sont considérés comme définitifs.
RangNrNomAgeIOCLigueEquipeRéelTempsTkmMoy.ScrPtsLocalité
1.371PHILIPPE JEROME43BELURBANTRITEAM51:0851:083:25 17.6011117HOEILAART
2.3623CAVYN JEAN PHILIPPE48BELVERTIGO57:3157:323:51 15.658990
3.594BOSSANT JEAN-FRANCOIS41BELFER57:3757:393:51 15.629987VELLEREILLE-LE-SEC
4.3469REGNIER PIERRE40BEL57:4857:493:52 15.5712982
5.44LELIEVRE THIERRY44BELJOGGANS57:5958:003:52 15.5215977JETTE
6.3291VANDEN BOSSCHE PHILIPPE47BEL58:3858:393:55 15.3522962
7.3438VANCASTER PIERRE43BEL59:3959:413:59 15.0826941
8.292BLONDEAUX YANNICK40BEL59:541:00:014:01 15.0028936THY-LE-CHÂTEAU
9.3309PLATBROOD PAUL45BEL1:00:121:00:184:02 14.9331929
10.3489VAN CAMP SEBASTIEN40BEL1:00:171:00:194:02 14.9232927
11.3495VERMEERE DIDIER46BELJETJET1:01:121:01:144:05 14.7039907
12.445RUELLE JEAN44BELURBAN TRI TEAM1:01:211:01:214:06 14.6740903WEZEMBEEK-OPPEM
13.699NOUAMANI MOHAMMED45BELJOGGANS1:01:471:01:484:08 14.5642895GANSHOREN
14.439LIENARD PHILIPPE46BELSPIBO1:01:591:01:594:08 14.5243891BLAUGIES
15.228MARCHAL YVES46BELRUNNING WILD1:03:151:03:164:14 14.2354863VEDRIN
16.3210HAMMER BRYAN42BEL1:03:141:03:224:14 14.2055863
17.236DUYCK XAVIER49BEL1:03:281:03:294:14 14.1856859SPY
18.3214CORDIER PASCAL46BELURBAN TRI TEAM1:04:481:04:574:20 13.8667830
19.695DE DAPPER DAVID43BELMYSTERE1:04:581:05:004:20 13.8568827BRUXELLES
20.420CAUDRON DAVID49BELSPIBO1:05:051:05:084:21 13.8270824FLENU
21.3299MERCHIE FREDERIC47BELCSFMYSTERE1:05:131:05:174:22 13.7972821
22.3646CORNUT PATRICE42BEL1:05:331:05:434:23 13.7077812GENAPPE
23.524CHARLIER ALAIN46BELSMAC1:05:351:05:534:24 13.6681809BOUGE
24.3234GUILLERM DAVID40BELRONVAU1:05:461:05:584:24 13.6586804
25.284MARTHOZ PASCAL47BELCEPAL1:05:491:05:594:24 13.6487802MOLENBEEK-SAINT-JEAN
26.243FONTAINE PATRICE42BELFORESTIERE1:06:001:06:064:25 13.6290798HERCHIES
27.463DEMIN MICHEL48BELTEAM MARCEL1:06:111:06:194:26 13.5794792SOVET
28.956BARTOSZUK ROMAN42BEL1:06:251:06:294:26 13.5497786ZAVENTEM
29.3597VAN CAMP JEAN FRANCOIS43BEL1:06:311:06:344:27 13.5298784
30.3203KOZYREFF DIMITRI43BEL1:06:421:06:424:27 13.49101780
31.264SCAILLET VINCENT47BELHASTRAIL/BAILRUN1:06:361:06:454:27 13.48102780HEER SUR MEUSE
32.3620RASKINET RENAUD44BEL1:07:101:07:184:30 13.37106769
33.942SERGYSELS PASCAL48BELJOGGANS1:07:031:07:274:30 13.35108770BRUXELLES
34.3436PIERREUX CHRISTOPHE45BEL1:08:401:08:464:36 13.09121738
35.3696CEBO FRÉDÉRIC46BELVALEO/BOUFFIOLS1:08:031:08:514:36 13.07122746MONTIGNIES-SUR-SAMBRE
36.938POMILIO NICOLA46BELSPIBO1:09:051:09:084:37 13.02125729QUAREGNON
37.3670HORNUNG MATTHIEU42DEURED SOX BRUSSELS1:09:131:09:374:39 12.93135721BRUXELLES
38.3422BELANGE LAURENT44BELANTILOB1:10:051:10:074:41 12.84140705
39.3607HOUBEN RAPHAEL40BELUSBWUSBW ROAD TEAM1:09:581:10:114:41 12.83141706
40.974LESOIL PHILIPPE49BELENJAMBEE1:09:351:10:204:42 12.80146709BRUXELLES
41.3682CHRISTOPH CHARLES46BELNSTT1:10:131:10:314:43 12.77148698OTTIGNIES
42.3642DEFALQUE ALBAN48BELANTILOB1:10:321:10:384:43 12.74151691BOUSVAL
43.3421DESQUESNES VINCENT44BEL1:10:281:10:404:43 12.74152692
44.3455LIEFGE RICHARD43BEL1:11:071:11:194:46 12.62163676
45.3216MERCENIER BENOIT40BELANTILOB1:10:551:11:344:47 12.58165677
46.3373RAMI SAID44BELUAC1:11:081:11:404:47 12.56166674
47.3215GRANDELET PHILIPPE46BEL1:11:381:11:414:47 12.56167666
48.3637BISCOS DAVID43BELJAMES1:11:441:11:504:48 12.53170662
49.2964KAMP OLIVIER42BELDSK ATTITUDE1:11:511:11:524:48 12.52171660WAVRE
50.3435DE WAHA PIERRE49BELRIWARIWA1:11:491:11:594:48 12.51172660
51.148HALLEUX JEAN-MARIE46BELHERV1:11:381:12:044:49 12.49175661HERVE
52.3372DEFRAENE ARTURO45BELANTILOB1:12:331:12:444:51 12.38177646
53.3688CULLUS XAVIER44BEL1:12:221:13:084:53 12.31185644PETIT-ENGHIEN
54.3419DACY BRUNO45BEL1:12:381:13:294:54 12.25188639
55.447BRUGGEMAN DAVID41BELSPTWAVRE1:12:421:13:294:54 12.25189637LIMELETTE
56.3628ALLOUCHI SOULIMED44BELUAC1:13:051:13:374:55 12.23192630
57.3480MAHAUT SEBASTIEN41BEL1:13:171:13:394:55 12.22194626
58.3429COUSTAURY FABIEN43BEL1:13:251:13:514:56 12.19198621
59.513DUFAUX RAPHAEL49BELJCPMF FLV1:13:341:14:084:57 12.14200618FLOREFFE
60.3486ERTVELD ERIC48BELHAC1:14:541:15:155:01 11.96211593
61.462PONCELET ETIENNE46BEL1:14:401:15:165:02 11.96212596RIENNE
62.3446BONTEMPS SEBASTIEN43BEL1:15:181:15:285:02 11.93216584
63.573SIBOURG MARC48BELBOOM BOOM CLAVIER1:15:141:15:335:03 11.91218584TERWAGNE
64.404TILBURGS FRANK49BELAVN1:16:101:16:325:07 11.76235561MEER
65.607TOUSSAINT PATRICK47BELSCBUTG1:16:151:16:345:07 11.76236559WAIMES
66.3641WANTIEZ DAMIEN44BEL1:16:161:16:485:08 11.72241556BOUSVAL
67.598VAN LANCKER LAURENT45BEL1:16:041:16:525:08 11.71243558COURT-SAINT-ETIENNE
68.923CEULEMANS NICOLAS46BELANTILOB1:16:351:16:535:08 11.71244550INCOURT
69.386SIMONS RUDY46BEL1:17:181:17:465:12 11.58250536LOENHOUT
70.3208DIDIER DAVID49BEL1:17:401:17:575:12 11.55253530
71.3616HALLAS LABIL40BELUAC1:18:071:18:205:14 11.49264517
72.3632PIQUARD BEN49BELRIWARIWA1:18:151:18:255:14 11.48267513
73.3217LEQUARRE BERTRAND41BEL1:18:211:18:395:15 11.44271510
74.3418MINNE PATRICE48BELJCPMF GENAPPE1:17:501:18:425:15 11.44274515
75.199ALAIME SEBASTIEN44BELSPTWAVRE1:18:271:19:095:17 11.37279504LIMAL
76.3494JACOBS PIERRE43BEL1:19:041:19:285:18 11.33286491
77.3735VAN DELSEN VINCENT48BEL1:19:071:19:475:20 11.28291488ESPIERRES
78.3679GIROULLE LIONEL40BEL1:19:441:19:545:20 11.26293478WANFERCÉE BAULET
79.3723MEZIANI MOHAND49FRACSFMYSTERE1:19:291:20:045:21 11.24294481BRUXELLES
80.261RIESTRA JOSE MANUEL46ESPMYSTERE1:19:411:20:165:22 11.21299476BRUXELLES
81.3413HOUDMONT ARNAUD49BELRUN ATTITUDE1:20:241:20:345:23 11.17304463
82.3492LALOY DENIS49BEL1:19:281:20:375:23 11.17306474
83.3449RIVERO HORTAL DARIO46BEL1:20:321:20:535:24 11.13308459
84.3440HAUBEN ALEXANDRE44BEL1:21:201:22:155:29 10.94328437
85.3246JACQUEMIN FREDERIC40BEL1:22:051:22:275:30 10.92329426
86.137ZERGHE PIERRE43BELNAC1:22:291:22:415:31 10.89330421NIVELLES
87.3364RUBAY RAPHAEL45BEL1:22:461:22:465:32 10.87331417
88.514GREVISSE DAVID42BELRONVAU1:22:471:23:155:33 10.81339412DION VALMONT
89.3734GRAYE JACQUES49BEL1:22:451:23:165:34 10.81340412RIXENSART
90.3689BEER CHRISTOPHE44BELCEPAL1:23:011:23:555:36 10.73351402IXELLES
91.648WARGE EDDY47BELOCAN1:23:471:24:045:37 10.71353391ANDENNE
92.3676LONDES DIDIER47BELIRUN@WATERLOO1:24:581:25:385:43 10.51368367WATERLOO
93.3627EL HARCHI SAID46BELUAC1:25:551:26:145:45 10.44379349
94.977BOISSELEAU FRANCOIS40FRA1:26:021:26:185:46 10.43380347FOREST
95.3664TENGROOTENHUYSE OLIVIER49BELTTB1:26:501:27:215:50 10.31388333RHODE-SAINT-GENESE
96.3423VAN CALSTER XAVIER46BEL1:27:281:27:565:52 10.24394321
97.3741HOTAT MICHEL47BELJAMES1:27:211:28:105:53 10.21401318VILLERS-LA-VILLE
98.3428DURIEUX ALAIN49BEL1:27:541:28:315:55 10.17407309
99.388BUCHET FREDERIC44BELUSBWMYSTERE1:29:051:29:205:58 10.08421286BRAINE-L'ALLEUD
100.3663DELSART JEAN-BAPTISTE40BEL1:30:191:31:176:06 9.86442259BOUSVAL
101.3365GANTOIS GERALD49BELTRTS1:30:541:31:416:07 9.82448249
102.3201VANGRUNDERBEECK PASCAL44BEL1:31:231:32:046:09 9.78455239
103.3294DEWULF LAURENT49BELAG INSURANCE1:32:101:32:546:12 9.69464225
104.476MARIS WIM48BELJOGGANS1:32:321:33:136:13 9.66468218GANSHOREN
105.3367DEFRERE LAURENT46BEL1:37:141:37:476:32 9.20500148
106.3205DESTENAY PATRICK43BEL1:36:571:37:486:32 9.20501150
107.3441LAMBILLOTTE DAVI43BEL1:40:401:41:096:45 8.9052199
108.3306DEVAUX NICOLAS43BELCPMV / WALCOURSE1:41:321:41:576:48 8.8352488
109.3473FERRACIN THIERRY41BEL1:45:001:45:177:02 8.5553646
110.418CUGNON MARC49BELJCPMF NASSOGNE1:51:301:51:457:27 8.055456FORRIERES
111.3738JONNIAUX LAURENT44BELJCHSH1:57:441:58:037:53 7.625484GOZEE
112.3451MORTIER FREDERIC42BELCACE2:06:172:07:008:28 7.095521
DSQ3448VANOMESLAEGHE DAMIEN45BELCS DYLE46:2646:47
DNF: abandon; DSQ: disqualifié; Vitesse en km/h
Page: [1]